Weather History for Santa Fe, NM

Change the Weather History Date:

Friday, October 19, 2012

  Actual Average Record
Temperature  
Mean Temperature 56 °F -  
Max Temperature 75 °F 65 °F 80 °F (2003)
Min Temperature 39 °F 27 °F 17 °F (1980)
Degree Days  
Heating Degree Days 9    
Growing Degree Days 6 (Base 50)    
Moisture  
Dew Point 14 °F    
Average Humidity 22    
Maximum Humidity 38    
Minimum Humidity 9    
Precipitation  
Precipitation 0.00 in - - ()
Sea Level Pressure  
Sea Level Pressure 29.94 in    
Wind  
Wind Speed 9 mph (NNW)    
Max Wind Speed 16 mph    
Max Gust Speed 22 mph    
Visibility 10 miles    
Events      
Averages and records for this station are not official NWS values.
T = Trace of Precipitation, MM = Missing Value Source: NWS Daily Summary

Daily Weather History Graph

Daily Weather History Graph

Search for Another Location

Airport:

Trip Planner

Search our weather history database for the weather conditions in past years. The results will help you decide how hot, cold, wet, or windy it might be!

Date:

Astronomy

Oct. 19, 2012 Rise Set
Actual Time 7:14 AM MDT 6:23 PM MDT
Civil Twilight 6:48 AM MDT 6:48 PM MDT
Nautical Twilight 6:19 AM MDT 7:18 PM MDT
Astronomical Twilight 5:49 AM MDT 7:48 PM MDT
Moon 11:53 AM MDT (10/19) 10:11 PM MDT (10/19)
Length of Visible Light 11h 59m
Length of Day
11h 08m
Waxing Crescent, 24% of the Moon is Illuminated
Oct 19
Waxing Crescent
Oct 21
First Quarter
Oct 29
Full
Nov 6
Last Quarter
Nov 13
New

Hourly Weather History & Observations

Time (MDT) Temp. Windchill Dew Point Humidity Pressure Visibility Wind Dir Wind Speed Gust Speed Precip Events Conditions
12:53 AM 48.0 °F - 12.0 °F 24% 29.97 in 10.0 mi Variable 4.6 mph - N/A   Clear
1:53 AM 42.1 °F 40.2 °F 12.9 °F 31% 29.98 in 10.0 mi Variable 3.5 mph - N/A   Clear
2:53 AM 41.0 °F 37.1 °F 12.9 °F 32% 29.99 in 10.0 mi NNE 5.8 mph - N/A   Clear
3:53 AM 39.9 °F 33.9 °F 12.9 °F 33% 29.98 in 10.0 mi NNE 9.2 mph - N/A   Clear
4:53 AM 42.1 °F 35.2 °F 14.0 °F 32% 29.96 in 10.0 mi North 12.7 mph - N/A   Clear
5:53 AM 41.0 °F 33.9 °F 15.1 °F 35% 29.98 in 10.0 mi North 12.7 mph - N/A   Clear
6:53 AM 41.0 °F 33.1 °F 15.1 °F 35% 30.01 in 10.0 mi North 15.0 mph - N/A   Clear
7:53 AM 39.9 °F 31.4 °F 16.0 °F 38% 30.05 in 10.0 mi North 16.1 mph - N/A   Clear
8:53 AM 48.0 °F - 16.0 °F 28% 30.05 in 10.0 mi North 11.5 mph - N/A   Clear
9:53 AM 53.1 °F - 16.0 °F 23% 30.04 in 10.0 mi North 15.0 mph 21.9 mph N/A   Clear
10:53 AM 60.1 °F - 16.0 °F 18% 30.03 in 10.0 mi North 13.8 mph 18.4 mph N/A   Clear
11:53 AM 64.0 °F - 16.0 °F 16% 30.00 in 10.0 mi North 8.1 mph - N/A   Clear
12:53 PM 66.9 °F - 15.1 °F 14% 29.94 in 10.0 mi WSW 11.5 mph - N/A   Clear
1:53 PM 68.0 °F - 14.0 °F 12% 29.92 in 10.0 mi SW 11.5 mph - N/A   Mostly Cloudy
2:53 PM 69.1 °F - 14.0 °F 12% 29.89 in 10.0 mi West 4.6 mph - N/A   Clear
3:53 PM 73.0 °F - 12.0 °F 10% 29.86 in 10.0 mi WSW 8.1 mph - N/A   Clear
4:53 PM 73.9 °F - 10.9 °F 9% 29.83 in 10.0 mi WSW 11.5 mph - N/A   Clear
5:53 PM 70.0 °F - 12.9 °F 11% 29.83 in 10.0 mi West 8.1 mph - N/A   Clear
6:53 PM 62.1 °F - 15.1 °F 16% 29.86 in 10.0 mi NW 5.8 mph - N/A   Clear
7:53 PM 55.0 °F - 16.0 °F 22% 29.91 in 10.0 mi WNW 4.6 mph - N/A   Clear
8:53 PM 53.1 °F - 10.0 °F 18% 29.90 in 10.0 mi North 10.4 mph - N/A   Clear
9:53 PM 53.1 °F - 10.9 °F 19% 29.88 in 10.0 mi NNE 9.2 mph - N/A   Clear
10:53 PM 51.1 °F - 10.9 °F 20% 29.86 in 10.0 mi NW 5.8 mph - N/A   Clear
11:53 PM 48.0 °F - 12.0 °F 24% 29.86 in 10.0 mi North 6.9 mph - N/A   Clear